1514764801.11,37063,7.88,72904.8,-2.97,-23.75,-25.23,0,*58
1514764802.35,37064,7.81,72896.0,-2.97,-23.89,-25.39,0,*57
1514764803.61,37065,7.81,72900.3,-2.97,-24.11,-25.61,0,*5D
1514764804.87,37066,7.81,72898.0,-2.97,-23.59,-24.87,0,*5C
1514764806.13,37067,7.81,72904.5,-2.97,-23.59,-24.87,0,*5D
1514764807.36,37068,7.81,72884.3,-2.95,-23.85,-25.23,0,*5E
1514764808.58,37069,7.81,72890.8,-2.95,-23.59,-25.09,0,*56
1514764809.83,37070,7.81,72888.5,-2.95,-24.05,-25.55,0,*59
1514764811.1,37071,7.81,72902.8,-2.95,-24.25,-25.71,0,*5C
1514764812.32,37072,7.81,72900.5,-2.91,-24.05,-25.49,0,*52
1514764813.61,37073,7.88,72908.5,-2.97,-23.99,-25.55,0,*5A
1514764814.85,37074,7.88,72902.8,-2.95,-23.43,-24.87,0,*56
1514764816.09,37075,7.81,72904.8,-2.95,-23.85,-25.35,0,*55
1514764817.33,37076,7.88,72910.8,-2.95,-24.05,-25.55,0,*5F
1514764818.54,37077,7.81,72906.3,-2.95,-23.89,-25.39,0,*57
1514764819.83,37078,7.81,72900.8,-2.97,-23.99,-25.55,0,*51
1514764821.1,37079,7.88,72912.5,-2.97,-24.31,-25.75,0,*57
1514764822.37,37080,7.81,72916.0,-2.97,-24.31,-25.75,0,*51
1514764823.63,37081,7.81,72902.5,-2.97,-23.65,-24.97,0,*5B
1514764824.85,37082,7.81,72910.5,-2.91,-23.75,-25.19,0,*58
1514764826.11,37083,7.81,72906.3,-2.95,-23.53,-24.83,0,*5B
1514764827.32,37084,7.88,72904.0,-2.95,-23.59,-24.93,0,*57
1514764828.54,37085,7.88,72904.8,-2.95,-24.05,-25.49,0,*5E
1514764829.81,37086,7.88,72908.5,-2.95,-24.21,-25.55,0,*56
1514764831.04,37087,7.88,72904.5,-2.95,-23.85,-25.23,0,*5F
1514764832.26,37088,7.88,72898.5,-2.95,-23.75,-25.19,0,*56
1514764833.49,37089,7.81,72900.8,-2.95,-23.85,-25.19,0,*58
1514764834.71,37090,7.88,72902.8,-2.95,-23.75,-25.19,0,*5F
1514764835.97,37091,7.88,72900.8,-2.95,-23.53,-24.83,0,*58
1514764837.19,37092,7.81,72904.8,-2.95,-23.75,-25.09,0,*5C
1514764838.42,37093,7.88,72896.3,-2.95,-23.85,-25.23,0,*5A
1514764839.67,37094,7.81,72904.5,-2.95,-24.05,-25.55,0,*53
1514764840.88,37095,7.88,72896.3,-2.95,-24.05,-25.39,0,*58
1514764842.13,37096,7.81,72904.0,-2.91,-24.05,-25.55,0,*55
1514764843.35,37097,7.81,72900.3,-2.95,-24.57,-26.03,0,*57
1514764844.6,37098,7.81,72906.0,-2.91,-24.51,-25.97,0,*54
1514764845.84,37099,7.88,72908.0,-2.95,-24.35,-25.81,0,*54
1514764847.08,37100,7.88,72914.3,-2.91,-24.11,-25.65,0,*5D
1514764848.31,37101,7.81,72914.0,-2.95,-23.39,-24.71,0,*51
1514764849.57,37102,7.88,72916.5,-2.95,-23.53,-24.87,0,*57
1514764850.78,37103,7.81,72922.3,-2.95,-23.89,-25.23,0,*5E
1514764852.02,37104,7.81,72936.3,-2.91,-23.95,-25.35,0,*57
1514764853.24,37105,7.81,72912.0,-2.91,-23.75,-25.09,0,*57
1514764854.48,37106,7.81,72922.5,-2.95,-23.95,-25.23,0,*56
1514764855.72,37107,7.88,72918.3,-2.95,-24.05,-25.55,0,*58
1514764856.94,37108,7.81,72906.8,-2.95,-24.05,-25.49,0,*5A
1514764858.21,37109,7.88,72916.5,-2.91,-24.11,-25.55,0,*57
1514764859.48,37110,7.81,72908.8,-2.89,-24.31,-25.75,0,*56
1514764860.73,37111,7.81,72916.8,-2.95,-24.51,-25.81,0,*57
1514764861.97,37112,7.81,72918.0,-2.95,-24.25,-25.65,0,*5D
1514764863.22,37113,7.81,72918.8,-2.95,-24.11,-25.49,0,*55
1514764864.49,37114,7.88,72920.0,-2.91,-24.11,-25.55,0,*5B
1514764865.73,37115,7.81,72916.5,-2.91,-24.11,-25.39,0,*50
1514764866.98,37116,7.81,72916.0,-2.95,-24.21,-25.65,0,*5D
1514764868.21,37117,7.81,72922.0,-2.95,-23.43,-24.83,0,*56
1514764869.45,37118,7.88,72916.0,-2.95,-23.23,-24.51,0,*50
1514764870.68,37119,7.88,72902.3,-2.91,-23.29,-24.57,0,*59
1514764871.92,37120,7.88,72906.5,-2.95,-23.85,-25.19,0,*5A
1514764873.13,37121,7.88,72906.8,-2.91,-23.89,-25.19,0,*53
1514764874.34,37122,7.88,72904.8,-2.95,-23.75,-24.93,0,*54
1514764875.58,37123,7.81,72904.8,-2.95,-22.97,-24.25,0,*55
1514764876.79,37124,7.88,72904.3,-2.91,-23.13,-24.51,0,*58
1514764878.05,37125,7.88,72894.0,-2.89,-23.33,-24.51,0,*52
1514764879.3,37126,7.81,72892.0,-2.89,-23.23,-24.47,0,*57
1514764880.54,37127,7.88,72894.8,-2.87,-23.23,-24.51,0,*5F
1514764881.74,37128,7.81,72890.8,-2.87,-23.39,-24.61,0,*58
1514764883.02,37129,7.81,72886.3,-2.89,-23.69,-24.87,0,*5A
1514764884.27,37130,7.88,72886.3,-2.87,-23.65,-24.83,0,*54
1514764885.51,37131,7.88,72884.0,-2.87,-23.33,-24.51,0,*59
1514764886.77,37132,7.81,72882.0,-2.85,-23.29,-24.57,0,*55
1514764888.06,37133,7.81,72884.5,-2.85,-23.33,-24.71,0,*5B
1514764889.29,37134,7.81,72880.5,-2.85,-23.43,-24.57,0,*5F
1514764890.53,37135,7.88,72888.5,-2.85,-23.59,-24.77,0,*57
1514764891.77,37136,7.88,72888.8,-2.85,-23.79,-25.13,0,*55
1514764893.03,37137,7.81,72888.0,-2.85,-23.13,-24.41,0,*5E
1514764894.24,37138,7.88,72890.3,-2.83,-23.13,-24.31,0,*50
1514764895.49,37139,7.88,72894.0,-2.81,-23.29,-24.57,0,*5A
1514764896.75,37140,7.81,72890.8,-2.81,-23.43,-24.71,0,*5C
1514764897.97,37141,7.81,72892.3,-2.79,-23.75,-25.13,0,*5A
1514764899.24,37142,7.81,72890.0,-2.81,-23.69,-25.03,0,*52
1514764900.5,37143,7.81,72890.5,-2.81,-23.79,-25.03,0,*52
1514764901.76,37144,7.88,72888.8,-2.81,-23.75,-25.03,0,*59
1514764902.99,37145,7.88,72894.0,-2.81,-23.59,-24.77,0,*54
1514764904.25,37146,7.88,72898.3,-2.81,-23.43,-24.71,0,*5A
1514764905.51,37147,7.81,72908.3,-2.81,-23.75,-25.03,0,*5A
1514764906.74,37148,7.81,72910.3,-2.81,-23.89,-25.19,0,*5D
1514764907.98,37149,7.88,72914.5,-2.79,-23.65,-24.97,0,*5E
1514764909.24,37150,7.81,72898.0,-2.79,-23.65,-24.87,0,*57
1514764910.49,37151,7.81,72900.0,-2.81,-23.95,-25.35,0,*56
1514764911.7,37152,7.81,72908.8,-2.79,-24.05,-25.35,0,*5C
1514764912.95,37153,7.81,72900.3,-2.79,-24.11,-25.49,0,*53
1514764914.18,37154,7.88,72900.0,-2.81,-24.35,-25.65,0,*5B
1514764915.4,37155,7.88,72898.5,-2.79,-24.31,-25.65,0,*59
1514764916.67,37156,7.81,72896.0,-2.81,-24.35,-25.55,0,*5A
1514764917.91,37157,7.81,72896.5,-2.83,-24.47,-25.75,0,*5E
1514764919.18,37158,7.81,72890.8,-2.81,-24.21,-25.49,0,*5C
1514764920.44,37159,7.81,72896.8,-2.81,-23.75,-25.03,0,*55
1514764921.7,37160,7.88,72902.5,-2.81,-23.43,-24.67,0,*59
1514764922.95,37161,7.88,72900.8,-2.81,-23.09,-24.25,0,*50
1514764924.18,37162,7.88,72894.8,-2.81,-23.39,-24.57,0,*55
1514764925.41,37163,7.88,72890.5,-2.79,-23.23,-24.51,0,*5E
1514764926.64,37164,7.81,72886.0,-2.79,-23.23,-24.51,0,*59
1514764927.87,37165,7.81,72880.0,-2.79,-23.33,-24.47,0,*5E
1514764929.1,37166,7.88,72888.3,-2.79,-22.93,-24.15,0,*51
1514764930.36,37167,7.88,72890.8,-2.77,-23.19,-24.51,0,*5D
1514764931.65,37168,7.88,72900.3,-2.77,-23.53,-24.71,0,*5E
1514764932.91,37169,7.88,72902.5,-2.75,-23.49,-24.61,0,*57
1514764934.17,37170,7.88,72906.3,-2.75,-23.65,-24.93,0,*5C
1514764935.43,37171,7.81,72894.5,-2.75,-23.69,-25.09,0,*53
1514764936.69,37172,7.81,72886.8,-2.75,-23.29,-24.57,0,*5E
1514764937.95,37173,7.88,72890.3,-2.75,-23.69,-24.97,0,*57
1514764939.19,37174,7.81,72890.3,-2.75,-23.79,-24.97,0,*51
1514764940.42,37175,7.81,72888.3,-2.73,-23.69,-25.09,0,*51
1514764941.68,37176,7.81,72890.0,-2.73,-24.11,-25.29,0,*58
1514764942.94,37177,7.88,72884.0,-2.75,-23.49,-24.61,0,*58
1514764944.18,37178,7.88,72880.0,-2.75,-23.79,-25.13,0,*50
1514764945.44,37179,7.88,72882.8,-2.75,-23.69,-24.93,0,*59
1514764946.68,37180,7.88,72900.3,-2.75,-23.79,-25.09,0,*5C
1514764947.94,37181,7.88,72906.3,-2.75,-23.69,-24.93,0,*5E
1514764949.18,37182,7.88,72902.5,-2.75,-23.43,-24.57,0,*5D
1514764950.42,37183,7.88,72902.8,-2.69,-22.93,-24.21,0,*5C
1514764951.64,37184,7.81,72898.3,-2.69,-23.59,-24.77,0,*5F
1514764952.86,37185,7.88,72898.8,-2.69,-24.05,-25.23,0,*50
1514764954.09,37186,7.81,72882.3,-2.73,-23.85,-25.13,0,*54
1514764955.33,37187,7.88,72898.0,-2.69,-24.11,-25.35,0,*50
1514764956.59,37188,7.88,72898.5,-2.73,-24.11,-25.29,0,*59
1514764957.85,37189,7.88,72902.0,-2.73,-23.99,-25.29,0,*5F
1514764959.08,37190,7.88,72888.3,-2.73,-23.69,-24.97,0,*5C
1514764960.31,37191,7.88,72898.3,-2.73,-23.33,-24.57,0,*5E
1514764961.51,37192,7.88,72896.8,-2.73,-23.39,-24.57,0,*57
1514764962.73,37193,7.88,72910.0,-2.69,-23.43,-24.61,0,*55
1514764963.96,37194,7.88,72888.5,-2.67,-23.59,-24.61,0,*57
1514764965.22,37195,7.81,72878.0,-2.67,-23.65,-24.93,0,*54
1514764966.46,37196,7.88,72880.5,-2.67,-23.75,-25.09,0,*54
1514764967.69,37197,7.88,72900.3,-2.65,-23.69,-24.97,0,*5C
1514764968.95,37198,7.88,72902.5,-2.65,-23.53,-24.71,0,*52
1514764970.2,37199,7.88,72896.8,-2.67,-23.39,-24.41,0,*5E
1514764971.44,37200,7.88,72904.3,-2.65,-23.23,-24.51,0,*55
1514764972.65,37201,7.88,72900.8,-2.65,-23.09,-24.31,0,*5A
1514764973.87,37202,7.81,72896.5,-2.65,-23.23,-24.35,0,*55
1514764975.11,37203,7.81,72902.5,-2.65,-23.09,-24.21,0,*59
1514764976.37,37204,7.88,72898.5,-2.63,-23.19,-24.35,0,*5C
1514764977.63,37205,7.88,72898.5,-2.63,-22.93,-24.15,0,*5C
1514764978.85,37206,7.88,72892.8,-2.61,-22.97,-24.11,0,*5D
1514764980.08,37207,7.81,72894.0,-2.61,-22.97,-24.11,0,*5C
1514764981.32,37208,7.88,72896.5,-2.61,-23.03,-24.31,0,*5D
1514764982.57,37209,7.88,72886.3,-2.61,-23.49,-24.83,0,*5B
1514764983.78,37210,7.88,72884.8,-2.57,-23.43,-24.77,0,*57
1514764985.07,37211,7.88,72888.8,-2.59,-23.49,-24.71,0,*54
1514764986.32,37212,7.88,72890.5,-2.57,-23.23,-24.41,0,*56
1514764987.58,37213,7.88,72892.0,-2.59,-23.33,-24.47,0,*5E
1514764988.78,37214,7.88,72892.3,-2.57,-23.59,-24.93,0,*52
1514764989.98,37215,7.88,72892.3,-2.57,-23.39,-24.47,0,*5C
1514764991.22,37216,7.88,72890.3,-2.59,-23.79,-24.97,0,*58
1514764992.47,37217,7.88,72882.0,-2.59,-23.69,-24.97,0,*58
1514764993.7,37218,7.88,72882.5,-2.57,-23.43,-24.71,0,*59
1514764994.99,37219,7.88,72890.3,-2.55,-23.53,-24.71,0,*5B
1514764996.22,37220,7.88,72880.0,-2.57,-23.65,-24.93,0,*5A
1514764997.43,37221,7.88,72888.8,-2.57,-23.79,-25.09,0,*54
1514764998.67,37222,7.88,72888.3,-2.59,-23.79,-25.09,0,*59
1514764999.9,37223,7.81,72880.3,-2.57,-23.59,-24.87,0,*53
1514765001.16,37224,7.88,72898.0,-2.57,-23.65,-24.87,0,*5B
1514765002.45,37225,7.88,72898.5,-2.59,-24.25,-25.29,0,*52
1514765003.7,37226,7.88,72900.8,-2.55,-23.69,-24.97,0,*56
1514765004.97,37227,7.88,72910.5,-2.55,-23.69,-24.87,0,*56
1514765006.23,37228,7.88,72904.0,-2.55,-23.75,-25.03,0,*59
1514765007.52,37229,7.88,72900.0,-2.55,-23.85,-25.03,0,*57
1514765008.77,37230,7.88,72904.5,-2.55,-24.15,-25.35,0,*54
1514765010.01,37231,7.88,72906.3,-2.55,-24.35,-25.49,0,*5C
1514765011.26,37232,7.88,72908.5,-2.55,-24.51,-25.65,0,*53
1514765012.5,37233,7.88,72896.8,-2.57,-24.47,-25.71,0,*52
1514765013.74,37234,7.88,72890.3,-2.57,-24.47,-25.71,0,*55
1514765014.99,37235,7.88,72894.8,-2.59,-24.47,-25.61,0,*5B
1514765016.24,37236,7.88,72886.8,-2.59,-24.51,-25.65,0,*5B
1514765017.5,37237,7.88,72896.8,-2.59,-24.61,-25.81,0,*53
1514765018.79,37238,7.88,72894.8,-2.59,-24.25,-25.45,0,*54
1514765020.04,37239,7.88,72896.5,-2.57,-24.15,-25.29,0,*52
1514765021.3,37240,7.88,72902.3,-2.59,-23.99,-25.23,0,*5B
1514765022.57,37241,7.88,72910.3,-2.59,-24.15,-25.39,0,*52
1514765023.83,37242,7.88,72908.8,-2.59,-23.99,-25.13,0,*5A
1514765025.06,37243,7.88,72916.8,-2.57,-24.11,-25.23,0,*51
1514765026.27,37244,7.81,72910.8,-2.57,-23.89,-25.09,0,*58
1514765027.5,37245,7.88,72910.0,-2.57,-23.95,-25.09,0,*54
1514765028.73,37246,7.88,72912.5,-2.57,-23.95,-25.19,0,*56
1514765029.96,37247,7.88,72912.5,-2.57,-23.79,-25.03,0,*5E
1514765031.19,37248,7.81,72912.3,-2.57,-23.95,-25.19,0,*58
1514765032.45,37249,7.88,72900.0,-2.59,-24.11,-25.23,0,*55
1514765033.69,37250,7.88,72904.0,-2.57,-24.25,-25.35,0,*53
1514765034.93,37251,7.88,72894.5,-2.57,-24.35,-25.55,0,*55
1514765036.22,37252,7.88,72900.8,-2.59,-24.41,-25.45,0,*5A
1514765037.46,37253,7.88,72910.3,-2.59,-24.31,-25.39,0,*57
1514765038.7,37254,7.88,72908.0,-2.57,-24.21,-25.35,0,*53
1514765039.94,37255,7.88,72906.0,-2.57,-24.21,-25.39,0,*5E
1514765041.17,37256,7.88,72898.8,-2.57,-24.11,-25.23,0,*55
1514765042.43,37257,7.88,72898.5,-2.57,-24.41,-25.55,0,*50
1514765043.68,37258,7.88,72902.8,-2.57,-24.47,-25.55,0,*59
1514765044.94,37259,7.88,72908.5,-2.59,-24.15,-25.39,0,*5B
1514765046.23,37260,7.88,72910.3,-2.59,-24.41,-25.55,0,*5A
1514765047.53,37261,7.88,72910.0,-2.59,-24.41,-25.55,0,*5B
1514765048.79,37262,7.88,72914.5,-2.59,-24.15,-25.23,0,*58
1514765050.05,37263,7.81,72912.3,-2.59,-23.99,-25.23,0,*5A
1514765051.28,37264,7.88,72908.5,-2.57,-23.95,-25.09,0,*57
1514765052.53,37265,7.88,72910.8,-2.55,-23.85,-24.97,0,*53
1514765053.79,37266,7.88,72904.3,-2.59,-23.69,-24.93,0,*5A
1514765055.02,37267,7.88,72904.5,-2.57,-23.79,-25.03,0,*5C
1514765056.25,37268,7.88,72910.0,-2.57,-23.89,-25.03,0,*5C
1514765057.51,37269,7.88,72904.8,-2.55,-23.75,-25.03,0,*5C
1514765058.76,37270,7.88,72910.3,-2.53,-23.69,-24.87,0,*52
1514765060.02,37271,7.88,72912.0,-2.55,-23.85,-24.97,0,*56
1514765061.27,37272,7.88,72902.3,-2.55,-23.89,-25.03,0,*55
1514765062.5,37273,7.88,72910.8,-2.55,-23.89,-24.97,0,*58
1514765063.71,37274,7.88,72910.8,-2.53,-23.75,-24.97,0,*5A
1514765064.95,37275,7.88,72910.0,-2.53,-24.31,-25.45,0,*52
1514765066.22,37276,7.88,72914.8,-2.55,-24.57,-25.71,0,*50
1514765067.49,37277,7.88,72916.8,-2.55,-24.51,-25.55,0,*51
1514765068.73,37278,7.88,72904.0,-2.55,-24.35,-25.49,0,*51
1514765069.99,37279,7.88,72904.0,-2.55,-24.21,-25.19,0,*50
1514765071.2,37280,7.88,72902.8,-2.53,-23.89,-25.13,0,*5F
1514765072.46,37281,7.88,72902.5,-2.55,-24.15,-25.19,0,*50
1514765073.71,37282,7.88,72902.8,-2.53,-24.15,-25.29,0,*56
1514765074.97,37283,7.88,72900.0,-2.55,-24.35,-25.45,0,*59
1514765076.21,37284,7.88,72894.0,-2.53,-24.05,-25.29,0,*51
1514765077.47,37285,7.88,72908.3,-2.55,-24.31,-25.45,0,*5B
1514765078.73,37286,7.88,72910.5,-2.55,-24.21,-25.35,0,*5E
1514765079.97,37287,7.88,72910.5,-2.53,-24.57,-25.71,0,*58
1514765081.24,37288,7.88,72908.0,-2.55,-24.31,-25.29,0,*5C
1514765082.45,37289,7.88,72912.5,-2.53,-24.05,-25.13,0,*55
1514765083.7,37290,7.88,72910.5,-2.55,-23.59,-24.67,0,*57
1514765084.94,37291,7.81,72908.5,-2.55,-23.59,-24.57,0,*55
1514765086.19,37292,7.88,72904.3,-2.53,-23.53,-24.67,0,*59
1514765087.47,37293,7.88,72914.8,-2.55,-23.69,-24.71,0,*50
1514765088.73,37294,7.88,72912.5,-2.51,-23.53,-24.61,0,*5B
1514765090.0,37295,7.88,72914.0,-2.51,-23.65,-24.67,0,*59
1514765091.28,37296,7.88,72918.0,-2.51,-23.65,-24.67,0,*5A
1514765092.5,37297,7.88,72910.5,-2.49,-23.69,-24.93,0,*55
1514765093.78,37298,7.81,72908.5,-2.51,-23.65,-24.83,0,*5E
1514765095.01,37299,7.88,72910.8,-2.49,-23.85,-24.93,0,*59
1514765096.23,37300,7.88,72906.3,-2.49,-23.95,-24.93,0,*59
1514765097.48,37301,7.88,72906.8,-2.49,-23.53,-24.67,0,*59
1514765098.75,37302,7.88,72900.5,-2.45,-23.49,-24.71,0,*5A
1514765099.98,37303,7.88,72904.0,-2.45,-23.59,-24.71,0,*5A
1514765101.19,37304,7.88,72910.3,-2.45,-23.59,-24.61,0,*5C
1514765102.42,37305,7.88,72908.5,-2.45,-23.49,-24.61,0,*5C
1514765103.64,37306,7.88,72906.8,-2.43,-23.59,-24.61,0,*58
1514765104.87,37307,7.88,72908.5,-2.43,-23.49,-24.57,0,*5D
1514765106.09,37308,7.88,72914.0,-2.43,-23.59,-24.77,0,*51
1514765107.36,37309,7.88,72910.3,-2.41,-23.69,-24.83,0,*5A
1514765108.63,37310,7.88,72906.3,-2.43,-23.65,-24.71,0,*51
1514765109.91,37311,7.88,72904.0,-2.41,-23.53,-24.67,0,*50
1514765111.15,37312,7.88,72906.0,-2.39,-23.59,-24.67,0,*56
1514765112.4,37313,7.88,72914.8,-2.39,-23.69,-24.87,0,*5A
1514765113.65,37314,7.88,72910.0,-2.39,-24.05,-25.03,0,*5D
1514765114.91,37315,7.88,72914.8,-2.41,-23.99,-24.97,0,*5D
1514765116.18,37316,7.88,72906.8,-2.39,-23.53,-24.71,0,*5F
1514765117.42,37317,7.88,72904.3,-2.39,-23.75,-24.83,0,*57
1514765118.66,37318,7.81,72910.8,-2.39,-24.15,-25.19,0,*5B
1514765119.87,37319,7.88,72902.0,-2.39,-23.89,-24.97,0,*5F
1514765121.11,37320,7.88,72884.5,-2.35,-23.79,-24.83,0,*53
1514765122.37,37321,7.88,72882.8,-2.37,-23.99,-24.97,0,*5B
1514765123.63,37322,7.88,72882.0,-2.37,-24.11,-25.23,0,*51
1514765124.93,37323,7.88,72892.5,-2.37,-24.21,-25.29,0,*59
1514765126.17,37324,7.88,72894.3,-2.37,-24.31,-25.35,0,*52
1514765127.43,37325,7.88,72900.3,-2.37,-24.47,-25.61,0,*53
1514765128.67,37326,7.88,72908.3,-2.37,-24.31,-25.35,0,*50
1514765129.93,37327,7.88,72916.3,-2.37,-23.95,-24.97,0,*51
1514765131.2,37328,7.88,72914.5,-2.37,-24.11,-24.97,0,*55
1514765132.49,37329,7.88,72914.3,-2.37,-24.67,-25.75,0,*58
1514765133.75,37330,7.88,72918.8,-2.37,-24.97,-26.13,0,*5C
1514765135.02,37331,7.88,72916.0,-2.37,-24.83,-25.91,0,*51
1514765136.25,37332,7.88,72918.0,-2.37,-24.97,-26.07,0,*5B
1514765137.52,37333,7.88,72912.8,-2.41,-24.71,-25.87,0,*58
1514765138.79,37334,7.81,72910.8,-2.39,-24.25,-25.29,0,*55
1514765140.05,37335,7.88,72910.0,-2.39,-24.41,-25.49,0,*50
1514765141.29,37336,7.88,72918.3,-2.41,-24.35,-25.49,0,*5F
1514765142.54,37337,7.88,72920.3,-2.39,-24.21,-25.35,0,*5F
1514765143.8,37338,7.81,72918.8,-2.39,-24.67,-25.81,0,*5D
1514765145.05,37339,7.88,72918.5,-2.39,-25.13,-26.13,0,*56
1514765146.31,37340,7.88,72926.5,-2.39,-25.29,-26.33,0,*53
1514765147.59,37341,7.88,72916.0,-2.41,-25.55,-26.55,0,*56
1514765148.86,37342,7.88,72922.8,-2.41,-25.55,-26.65,0,*56
1514765150.11,37343,7.88,72922.3,-2.41,-25.19,-26.17,0,*5A
1514765151.36,37344,7.88,72914.0,-2.43,-24.71,-25.87,0,*5A
1514765152.56,37345,7.88,72904.5,-2.43,-25.19,-26.23,0,*59
1514765153.82,37346,7.88,72902.0,-2.43,-25.45,-26.55,0,*52
1514765155.02,37347,7.88,72910.8,-2.45,-25.39,-26.39,0,*54
1514765156.23,37348,7.88,72908.0,-2.43,-25.39,-26.45,0,*56
1514765157.48,37349,7.88,72914.0,-2.45,-25.45,-26.71,0,*5D
1514765158.69,37350,7.88,72914.8,-2.49,-25.49,-26.65,0,*50
1514765159.93,37351,7.88,72914.0,-2.51,-25.45,-26.61,0,*50
1514765161.16,37352,7.88,72910.0,-2.49,-25.45,-26.65,0,*5E
1514765162.41,37353,7.88,72906.8,-2.51,-25.45,-26.61,0,*52
1514765163.63,37354,7.81,72898.0,-2.51,-25.61,-26.61,0,*53
1514765164.86,37355,7.88,72900.8,-2.51,-25.39,-26.45,0,*59
1514765166.12,37356,7.88,72900.3,-2.51,-25.09,-26.13,0,*5A
1514765167.37,37357,7.88,72892.0,-2.51,-24.93,-25.97,0,*56
1514765168.63,37358,7.88,72902.3,-2.51,-24.77,-25.81,0,*54
1514765169.87,37359,7.88,72896.0,-2.51,-24.31,-25.39,0,*54
1514765171.1,37360,7.88,72900.0,-2.49,-24.25,-25.23,0,*59
1514765172.34,37361,7.88,72896.5,-2.49,-24.31,-25.29,0,*57
1514765173.59,37362,7.88,72904.5,-2.51,-24.47,-25.49,0,*5A
1514765174.84,37363,7.81,72904.8,-2.51,-24.35,-25.45,0,*52
1514765176.1,37364,7.88,72902.8,-2.49,-24.67,-25.81,0,*53
1514765177.3,37365,7.88,72904.0,-2.49,-24.77,-25.91,0,*52
1514765178.53,37366,7.88,72904.3,-2.49,-24.83,-25.91,0,*5A
1514765179.73,37367,7.88,72902.3,-2.49,-24.97,-26.07,0,*52
1514765180.99,37368,7.88,72902.3,-2.51,-24.93,-25.97,0,*5A
1514765182.19,37369,7.88,72902.5,-2.49,-24.97,-26.07,0,*5C
1514765183.44,37370,7.88,72898.3,-2.49,-24.67,-25.81,0,*56
1514765184.64,37371,7.88,72896.0,-2.49,-24.97,-26.07,0,*55
1514765185.87,37372,7.88,72894.5,-2.49,-24.93,-25.97,0,*58
1514765187.15,37373,7.88,72896.3,-2.51,-24.67,-25.75,0,*57
1514765188.39,37374,7.88,72900.8,-2.51,-24.31,-25.39,0,*5B
1514765189.63,37375,7.88,72902.8,-2.49,-24.11,-25.13,0,*59
1514765190.86,37376,7.88,72908.8,-2.45,-24.11,-25.09,0,*5D
1514765192.08,37377,7.88,72902.3,-2.49,-24.47,-25.61,0,*5D
1514765193.29,37378,7.88,72904.5,-2.49,-24.77,-25.91,0,*5E
1514765194.52,37379,7.88,72902.8,-2.45,-25.03,-26.07,0,*5D
1514765195.72,37380,7.88,72902.3,-2.45,-24.93,-26.03,0,*57
1514765196.95,37381,7.88,72908.8,-2.45,-25.23,-26.33,0,*5F
1514765198.18,37382,7.88,72902.0,-2.45,-25.23,-26.33,0,*5C
1514765199.41,37383,7.88,72900.0,-2.45,-25.39,-26.55,0,*56
1514765200.64,37384,7.88,72892.0,-2.45,-25.39,-26.55,0,*51
1514765201.85,37385,7.88,72890.8,-2.49,-25.49,-26.61,0,*5C
1514765203.07,37386,7.88,72900.0,-2.51,-25.39,-26.49,0,*5B
1514765204.3,37387,7.88,72910.3,-2.51,-25.39,-26.61,0,*50
1514765205.5,37388,7.88,72912.3,-2.53,-25.35,-26.45,0,*57
1514765206.73,37389,7.88,72902.5,-2.53,-25.49,-26.71,0,*5A
1514765207.94,37390,7.88,72898.5,-2.53,-25.49,-26.87,0,*5B
1514765209.15,37391,7.88,72898.5,-2.53,-25.65,-26.87,0,*54
1514765210.39,37392,7.88,72896.5,-2.53,-25.55,-26.65,0,*58
1514765211.62,37393,7.88,72914.5,-2.55,-25.49,-26.65,0,*52
1514765212.88,37394,7.81,72880.3,-2.53,-25.29,-26.33,0,*56
1514765214.11,37395,7.88,72894.0,-2.55,-25.49,-26.65,0,*54
1514765215.31,37396,7.88,72888.5,-2.53,-25.35,-26.45,0,*58
1514765216.58,37397,7.88,72900.3,-2.55,-24.71,-25.87,0,*53
1514765217.87,37398,7.88,72902.0,-2.55,-24.71,-25.97,0,*5D
1514765219.13,37399,7.88,72904.3,-2.55,-24.87,-26.03,0,*5B
1514765220.4,37400,7.88,72908.8,-2.55,-24.83,-26.03,0,*58
1514765221.66,37401,7.88,72914.5,-2.51,-24.77,-25.97,0,*58
1514765222.9,37402,7.88,72912.3,-2.53,-24.41,-25.65,0,*51
1514765224.14,37403,7.88,72912.8,-2.53,-24.57,-25.81,0,*5D
1514765225.41,37404,7.88,72912.3,-2.53,-24.71,-26.13,0,*56
1514765226.65,37405,7.88,72926.0,-2.53,-24.83,-26.03,0,*5B
1514765227.88,37406,7.88,72908.8,-2.53,-24.97,-26.17,0,*58
1514765229.11,37407,7.88,72914.0,-2.51,-25.13,-26.39,0,*5A
1514765230.36,37408,7.88,72918.8,-2.51,-25.29,-26.49,0,*5B
1514765231.6,37409,7.88,72910.3,-2.53,-25.49,-26.81,0,*5A
1514765232.85,37410,7.88,72908.0,-2.53,-25.45,-26.81,0,*5E
1514765234.06,37411,7.88,72920.3,-2.53,-25.49,-26.87,0,*55
1514765235.27,37412,7.88,72908.5,-2.53,-25.49,-26.87,0,*56
1514765236.5,37413,7.88,72904.5,-2.55,-25.65,-26.87,0,*5F
1514765237.76,37414,7.88,72912.0,-2.55,-25.71,-27.03,0,*50
1514765239.05,37415,7.88,72916.8,-2.55,-25.55,-26.97,0,*5B
1514765240.28,37416,7.88,72914.0,-2.55,-25.65,-27.03,0,*57
1514765241.54,37417,7.88,72910.5,-2.55,-25.81,-27.13,0,*5D
1514765242.77,37418,7.88,72916.8,-2.57,-25.75,-27.03,0,*5A
1514765244.03,37419,7.88,72922.5,-2.59,-25.61,-26.93,0,*58
1514765245.29,37420,7.81,72920.0,-2.57,-25.55,-26.77,0,*51
1514765246.57,37421,7.88,72922.5,-2.59,-25.55,-26.71,0,*58
1514765247.83,37422,7.88,72918.8,-2.57,-25.55,-26.93,0,*59
1514765249.09,37423,7.88,72918.3,-2.59,-25.65,-26.97,0,*51
1514765250.37,37424,7.88,72932.0,-2.59,-25.45,-26.77,0,*5A
1514765251.6,37425,7.88,72918.3,-2.57,-24.87,-26.07,0,*5D
1514765252.89,37426,7.88,72924.3,-2.59,-25.55,-26.77,0,*59
1514765254.12,37427,7.88,72918.8,-2.59,-25.13,-26.61,0,*5D
1514765255.35,37428,7.88,72920.8,-2.59,-25.23,-26.61,0,*51
1514765256.57,37429,7.88,72920.8,-2.57,-24.93,-26.29,0,*58
1514765257.81,37430,7.88,72918.3,-2.57,-24.71,-26.07,0,*50
1514765259.05,37431,7.88,72926.0,-2.57,-24.71,-26.07,0,*51
1514765260.25,37432,7.88,72918.8,-2.57,-25.19,-26.49,0,*57
1514765261.47,37433,7.88,72922.5,-2.57,-25.23,-26.55,0,*52
1514765262.72,37434,7.88,72924.8,-2.57,-25.29,-26.71,0,*59
1514765263.98,37435,7.88,72926.3,-2.57,-25.55,-26.93,0,*5F
1514765265.23,37436,7.88,72926.5,-2.59,-25.61,-26.93,0,*55
1514765266.52,37437,7.88,72920.8,-2.59,-25.75,-27.23,0,*5B
1514765267.77,37438,7.88,72920.0,-2.59,-25.91,-27.23,0,*5E
1514765269.01,37439,7.88,72918.5,-2.59,-25.91,-27.29,0,*55
1514765270.26,37440,7.88,72916.3,-2.59,-26.07,-27.45,0,*5D
1514765271.52,37441,7.88,72920.8,-2.61,-25.97,-27.39,0,*56
1514765272.78,37442,7.88,72920.0,-2.61,-25.81,-27.23,0,*59
1514765273.99,37443,7.88,72914.8,-2.61,-25.13,-26.61,0,*54
1514765275.24,37444,7.88,72912.5,-2.59,-25.29,-26.61,0,*51
1514765276.47,37445,7.88,72902.0,-2.61,-25.29,-26.65,0,*5F
1514765277.7,37446,7.88,72916.3,-2.61,-25.39,-26.81,0,*57
1514765278.93,37447,7.88,72916.0,-2.61,-25.29,-26.61,0,*59
1514765280.18,37448,7.88,72906.3,-2.59,-25.13,-26.55,0,*53
1514765281.39,37449,7.88,72912.8,-2.61,-25.13,-26.61,0,*5E
1514765282.62,37450,7.88,72902.0,-2.61,-24.93,-26.29,0,*53
1514765283.86,37451,7.88,72904.8,-2.61,-24.77,-26.29,0,*58
1514765285.09,37452,7.88,72904.8,-2.61,-24.77,-26.13,0,*52
1514765286.32,37453,7.88,72906.5,-2.59,-25.23,-26.61,0,*5D
1514765287.57,37454,7.88,72906.8,-2.59,-25.09,-26.55,0,*55
1514765288.83,37455,7.88,72908.5,-2.59,-25.13,-26.55,0,*5F
1514765290.11,37456,7.88,72908.0,-2.59,-25.29,-26.81,0,*5C
1514765291.38,37457,7.88,72926.3,-2.59,-25.75,-27.29,0,*57
1514765292.61,37458,7.88,72918.8,-2.61,-25.55,-27.07,0,*5D
1514765293.85,37459,7.88,72914.0,-2.61,-25.65,-26.97,0,*57
1514765295.1,37460,7.88,72910.0,-2.61,-25.81,-27.23,0,*59
1514765296.34,37461,7.88,72914.5,-2.63,-25.87,-27.51,0,*59
1514765297.57,37462,7.88,72906.0,-2.61,-26.13,-27.55,0,*52
1514765298.83,37463,7.81,72914.0,-2.63,-26.17,-27.77,0,*55
1514765300.09,37464,7.88,72906.8,-2.63,-25.81,-27.29,0,*55
1514765301.33,37465,7.88,72912.3,-2.63,-25.61,-27.03,0,*52
1514765302.59,37466,7.88,72904.5,-2.63,-25.49,-26.97,0,*57
1514765303.83,37467,7.88,72896.5,-2.63,-25.49,-26.87,0,*57
1514765305.06,37468,7.88,72894.3,-2.63,-25.13,-26.65,0,*5B
1514765306.32,37469,7.88,72898.0,-2.63,-25.03,-26.65,0,*5B